Wind_Speed
34 34 32 33 34 34 35 39 41 43 45 47 49 53 56 59 64 68 69 68 65 66 68 72 77 83 87 92 97 103 108 114 120 116 118 114 102 93 84 78 74 74 76
31 30 32 32 32 34 39 41 43 45 48 50 53 57 60 64 69 69 68 65 66 69 73 79 84 88 93 99 104 109 115 120 123 121 105 86 77 71 68 65 65 70 77
30 31 31 31 34 38 41 43 45 49 50 54 57 61 66 69 69 67 65 66 69 75 80 85 90 96 101 107 113 118 121 120 110 96 82 71 65 63 63 64 67 72 71
30 30 31 34 37 41 43 46 49 49 53 56 61 66 69 70 67 65 66 69 75 80 87 93 100 105 110 115 118 121 118 101 86 80 75 68 67 64 67 69 69 61 57
29 31 34 37 40 44 46 48 49 54 56 60 65 69 70 67 65 66 70 75 80 86 94 100 106 110 115 119 120 110 94 86 83 81 78 75 72 71 72 72 58 50 39
31 33 36 39 43 45 47 50 52 54 60 64 69 68 66 65 66 71 76 80 86 93 99 107 112 115 118 113 98 91 90 89 84 80 78 74 72 70 66 52 45 41 33
33 36 39 42 46 47 48 50 53 59 62 69 67 64 64 66 71 76 81 87 94 100 108 113 114 115 105 93 88 88 83 77 73 71 66 59 55 49 44 40 41 37 32
36 39 43 46 46 46 48 53 57 62 66 66 62 63 66 72 77 80 86 93 101 106 110 114 111 98 88 88 84 78 72 65 56 49 45 40 37 35 37 37 31 27 25
40 43 45 43 43 48 52 57 61 64 64 60 61 66 71 76 80 86 92 99 103 108 112 107 93 86 86 78 74 70 60 47 38 32 31 32 31 36 37 29 27 24 22
36 38 41 45 47 52 56 59 62 58 57 60 65 70 74 80 87 93 97 102 107 111 104 85 83 82 74 70 63 54 38 30 27 24 24 29 32 31 30 29 27 25 23
39 42 44 48 51 54 58 59 54 55 59 63 67 72 80 86 92 97 102 107 109 103 85 80 76 70 67 58 47 39 33 25 20 24 25 23 25 26 25 26 25 23 21
41 44 47 50 53 56 53 52 54 58 62 65 70 77 83 89 96 101 106 108 100 84 79 71 67 63 54 39 35 29 22 24 24 20 20 23 23 22 22 22 23 27 29
44 46 48 52 52 50 50 53 58 61 64 69 74 81 88 94 99 104 106 96 80 78 69 62 55 47 38 30 24 22 24 20 17 18 21 22 21 20 19 21 23 27 34
43 47 49 48 48 50 53 56 59 63 69 75 81 88 93 99 102 105 96 79 75 67 59 50 44 41 32 21 25 25 19 17 16 18 20 21 21 20 19 19 22 25 28
45 45 45 46 48 51 54 57 62 70 76 81 87 93 97 101 102 94 78 74 66 57 48 43 39 28 21 29 28 19 19 18 19 20 20 21 21 19 18 18 21 24 26
42 44 45 47 49 52 56 62 70 76 82 87 92 96 99 100 90 76 73 64 56 46 40 33 20 23 27 24 18 19 18 18 19 21 21 19 19 18 18 18 19 22 24
43 45 45 48 52 55 60 67 72 80 86 90 93 97 99 88 75 72 63 55 43 39 31 20 27 27 21 18 19 20 20 22 22 23 22 21 19 16 16 17 17 19 21
44 45 48 51 55 60 66 73 78 82 86 91 96 99 87 73 71 61 54 40 38 35 22 26 25 20 21 20 22 23 24 24 25 23 22 20 19 16 15 15 16 16 15
45 48 51 55 60 66 72 77 82 85 89 94 96 85 71 67 58 54 40 36 32 20 25 23 22 22 23 23 21 21 20 20 20 21 19 17 16 15 13 12 12 14 11
47 51 54 60 66 71 76 81 85 88 92 95 83 68 62 54 50 38 33 29 20 24 22 22 21 20 18 20 22 22 20 19 20 21 19 18 15 13 9 8 9 9 9
49 53 60 66 70 75 79 83 86 90 94 81 67 62 53 48 39 29 26 18 21 20 22 20 18 19 21 24 25 25 24 20 17 18 17 16 14 10 8 9 8 8 6
54 60 65 70 74 78 82 85 89 93 81 67 61 53 47 43 28 25 17 19 18 18 16 17 18 20 20 19 19 20 19 19 17 15 13 12 12 11 11 9 9 7 6
60 64 69 73 77 81 84 87 91 82 67 61 55 47 40 29 21 16 16 16 15 15 17 18 19 18 16 16 18 19 19 18 16 14 13 15 15 13 12 12 12 9 5
64 68 71 76 79 82 85 90 84 68 63 56 48 38 30 17 14 12 12 11 14 16 16 16 15 15 15 18 20 21 22 23 22 18 15 14 15 15 14 13 13 11 8
66 69 74 77 81 84 88 86 67 63 57 49 36 26 17 10 6 7 9 14 16 16 16 15 14 15 14 15 17 18 21 23 23 21 19 19 19 20 19 17 16 13 11
69 73 76 80 83 87 86 64 62 56 49 39 26 19 5 2 5 9 13 15 17 18 20 21 19 17 16 13 14 17 18 22 25 24 20 18 19 20 21 22 22 21 19
Wind_Direction
267 274 279 280 283 285 288 291 294 294 297 298 298 299 303 304 304 307 308 309 308 306 304 305 306 308 308 307 307 306 305 304 304 304 304 303 299 294 293 292 292 294 294
273 277 277 281 283 287 290 294 294 296 296 296 298 300 302 304 307 309 309 309 308 307 308 309 310 309 309 308 307 307 306 306 306 306 305 301 298 296 295 294 295 295 295
275 276 279 282 285 290 293 294 295 294 294 298 300 301 305 308 309 308 309 309 309 310 311 311 312 311 310 310 309 308 308 308 306 304 304 302 299 297 297 297 298 300 299
273 277 281 285 289 292 294 294 292 294 296 299 302 305 307 308 308 308 309 309 311 312 313 314 314 313 312 311 310 310 309 306 305 305 305 302 300 299 298 301 304 302 301
276 280 284 288 291 292 291 291 292 296 301 301 305 307 308 308 308 309 309 312 312 314 316 315 314 313 313 312 312 310 307 306 305 302 299 298 297 297 300 302 304 302 299
280 284 288 291 290 289 290 294 298 301 302 305 306 308 307 308 309 310 312 312 313 314 315 315 314 314 314 313 310 310 309 307 304 300 297 297 295 296 298 302 303 302 304
286 290 289 288 288 291 295 298 300 302 305 306 308 307 308 309 310 311 311 313 314 315 315 314 315 316 314 313 312 310 308 307 302 301 300 299 298 298 301 301 311 309 305
288 286 287 286 290 292 297 301 303 304 307 308 307 308 310 311 312 312 313 316 316 314 314 317 317 315 315 314 313 313 314 311 307 305 302 301 301 305 308 317 317 322 317
286 287 291 296 298 299 300 302 304 306 307 308 309 310 312 312 312 313 316 317 316 317 319 319 317 317 317 316 316 317 317 315 312 311 309 311 316 317 320 327 327 329 326
290 293 294 294 297 299 301 303 304 306 308 309 310 312 312 314 317 317 317 319 320 321 320 318 318 318 318 317 318 322 327 325 320 318 319 319 321 325 326 328 334 336 334
288 290 294 296 299 301 302 304 306 308 309 311 313 314 318 318 318 319 320 321 322 321 320 321 319 318 317 317 320 325 326 331 333 328 328 332 332 332 334 338 342 348 347
292 295 298 300 301 302 303 305 307 309 311 312 314 317 318 319 320 321 322 323 322 322 322 321 321 321 320 320 323 327 335 336 333 337 343 345 347 347 347 349 352 349 347
297 299 300 300 302 303 306 308 310 311 313 314 315 317 319 320 321 322 324 323 321 322 323 322 325 328 327 326 332 336 334 340 346 350 349 347 350 354 356 355 354 352 348
297 298 299 302 304 306 309 310 312 314 315 316 317 319 320 321 322 324 324 322 322 322 322 323 323 326 328 337 337 339 344 348 352 348 347 348 349 351 354 354 354 351 348
299 301 303 304 308 310 311 314 316 317 318 319 319 320 321 322 324 324 323 323 323 323 324 324 324 327 333 332 336 343 343 348 347 345 345 345 345 345 352 354 357 352 358
303 304 306 309 310 312 315 316 318 319 320 320 321 322 324 326 324 323 324 323 324 323 326 327 333 330 330 332 337 336 340 340 338 338 339 341 343 344 345 351 354 358 6
306 308 310 311 313 314 315 317 319 320 320 320 323 325 326 324 322 324 324 324 324 325 330 331 331 330 332 333 332 332 333 330 328 331 331 333 335 337 343 345 350 1 10
309 311 312 313 314 314 317 318 319 319 320 322 325 326 325 322 323 324 325 325 326 327 331 331 331 334 333 332 330 329 329 332 333 332 331 327 326 327 331 343 350 355 7
312 313 314 314 314 316 318 319 320 321 322 325 325 325 323 323 323 325 326 326 327 330 330 333 333 333 329 332 336 337 339 339 342 344 341 337 333 326 328 326 342 345 0
313 313 313 315 317 318 319 320 321 322 324 326 325 323 324 324 326 324 324 327 330 330 334 333 334 337 341 338 336 334 331 330 334 343 349 352 342 336 339 347 336 333 347
312 314 316 318 318 318 319 321 322 324 326 326 324 325 326 327 327 324 330 334 333 333 334 342 345 344 339 334 334 335 335 331 329 338 344 345 343 339 351 349 329 324 333
314 316 317 317 317 319 320 322 324 326 327 325 325 326 326 328 326 330 338 335 338 340 347 350 349 345 345 351 359 6 9 4 356 355 5 21 30 24 15 0 348 327 314
315 316 316 317 319 321 321 323 325 327 325 325 325 323 323 325 326 336 339 343 349 3 3 359 358 360 12 21 22 20 16 13 14 24 40 27 24 27 34 28 25 19 338
315 317 318 320 320 321 322 325 327 325 325 325 323 323 323 324 332 343 352 10 17 10 7 9 16 28 33 38 40 39 36 35 35 38 40 42 37 26 25 24 21 22 20
318 319 319 320 321 322 325 327 325 326 326 326 325 323 324 333 354 16 41 32 25 21 18 18 22 33 43 52 49 38 34 36 39 40 40 39 38 37 41 42 37 31 34
320 321 320 321 323 324 326 326 326 326 328 327 322 322 330 48 77 79 56 47 42 37 36 37 38 41 46 47 47 40 37 35 33 34 34 38 42 51 49 46 46 49 51
Height
5707 5706 5705 5703 5700 5697 5694 5691 5688 5683 5679 5675 5669 5663 5656 5649 5642 5633 5623 5614 5604 5594 5584 5575 5565 5553 5542 5529 5515 5500 5484 5462 5444 5455 5433 5416 5398 5379 5374 5362 5350 5338 5325
5700 5699 5697 5695 5692 5689 5687 5683 5678 5674 5669 5664 5658 5651 5644 5637 5627 5618 5608 5598 5588 5578 5568 5557 5545 5533 5519 5503 5488 5472 5456 5436 5409 5397 5401 5382 5368 5357 5347 5341 5335 5324 5310
5693 5691 5689 5687 5685 5682 5678 5674 5669 5664 5659 5653 5646 5639 5631 5622 5613 5602 5592 5582 5572 5561 5549 5537 5524 5510 5495 5478 5459 5442 5422 5403 5383 5363 5362 5355 5347 5336 5329 5323 5315 5304 5289
5686 5684 5682 5680 5677 5673 5669 5664 5659 5654 5648 5641 5633 5625 5616 5606 5596 5587 5577 5567 5555 5543 5529 5515 5499 5483 5466 5448 5428 5408 5389 5371 5356 5344 5336 5331 5323 5318 5307 5298 5295 5282 5272
5678 5676 5674 5671 5668 5664 5659 5654 5649 5643 5635 5628 5621 5611 5600 5590 5580 5571 5561 5550 5537 5523 5508 5492 5474 5455 5436 5416 5394 5375 5356 5345 5335 5325 5317 5310 5304 5296 5287 5281 5272 5265 5259
5670 5668 5666 5663 5658 5654 5649 5644 5637 5630 5623 5615 5605 5596 5585 5575 5565 5554 5543 5532 5518 5502 5487 5469 5448 5428 5409 5388 5365 5347 5333 5319 5311 5298 5289 5285 5280 5275 5269 5263 5257 5250 5247
5662 5660 5657 5653 5648 5643 5638 5632 5626 5619 5610 5600 5589 5580 5570 5560 5550 5538 5526 5513 5498 5480 5461 5442 5423 5401 5379 5360 5346 5329 5316 5303 5287 5276 5269 5265 5260 5257 5255 5251 5245 5236 5231
5654 5651 5647 5642 5637 5632 5627 5621 5614 5605 5596 5585 5575 5565 5556 5544 5533 5522 5508 5494 5478 5458 5437 5415 5394 5375 5357 5341 5324 5312 5299 5284 5273 5265 5257 5252 5250 5247 5243 5238 5233 5228 5222
5645 5641 5636 5632 5627 5622 5615 5609 5601 5591 5581 5572 5561 5551 5541 5529 5517 5504 5491 5475 5456 5435 5412 5390 5367 5352 5337 5322 5307 5295 5283 5271 5263 5256 5251 5246 5242 5238 5233 5231 5227 5222 5218
5636 5632 5627 5622 5617 5610 5603 5596 5587 5578 5569 5559 5548 5537 5525 5513 5498 5483 5467 5450 5433 5413 5393 5370 5351 5333 5319 5307 5295 5284 5274 5266 5260 5254 5248 5243 5238 5234 5229 5224 5220 5217 5211
5627 5622 5617 5612 5605 5598 5590 5582 5573 5565 5556 5547 5537 5524 5510 5495 5479 5461 5441 5422 5404 5389 5369 5354 5336 5321 5308 5297 5286 5278 5270 5263 5258 5252 5248 5243 5237 5232 5227 5222 5217 5212 5208
5616 5612 5606 5600 5593 5585 5577 5569 5561 5553 5544 5534 5523 5510 5494 5477 5459 5441 5420 5399 5379 5363 5352 5336 5323 5308 5296 5288 5281 5275 5268 5262 5257 5252 5247 5241 5236 5231 5226 5221 5216 5209 5203
5606 5601 5595 5588 5581 5573 5566 5558 5550 5540 5531 5521 5509 5495 5479 5459 5441 5421 5402 5382 5365 5351 5337 5323 5312 5301 5291 5284 5278 5273 5268 5262 5256 5251 5246 5241 5236 5231 5226 5220 5215 5209 5200
5595 5589 5583 5576 5569 5562 5555 5547 5537 5527 5517 5505 5492 5478 5460 5440 5420 5403 5385 5369 5354 5340 5327 5317 5306 5297 5289 5283 5278 5271 5265 5261 5256 5251 5246 5241 5236 5231 5226 5221 5216 5210 5203
5584 5578 5572 5566 5559 5551 5542 5534 5524 5512 5500 5488 5473 5457 5440 5422 5402 5383 5367 5354 5341 5329 5319 5309 5300 5293 5288 5281 5274 5270 5265 5260 5255 5250 5245 5241 5236 5230 5225 5221 5216 5210 5204
5574 5568 5562 5555 5547 5540 5531 5520 5507 5496 5481 5467 5450 5433 5416 5397 5382 5368 5355 5340 5329 5320 5312 5304 5297 5292 5286 5280 5274 5269 5264 5259 5254 5249 5244 5240 5235 5231 5226 5221 5217 5212 5206
5563 5557 5551 5544 5536 5528 5518 5508 5498 5481 5463 5447 5431 5415 5397 5380 5366 5355 5343 5331 5320 5314 5307 5300 5295 5289 5283 5278 5273 5269 5263 5258 5253 5248 5243 5238 5234 5230 5226 5222 5217 5213 5208
5553 5547 5540 5532 5524 5515 5505 5494 5482 5467 5452 5434 5414 5398 5382 5366 5354 5343 5333 5323 5316 5307 5302 5298 5292 5287 5282 5276 5271 5267 5261 5255 5249 5244 5240 5236 5232 5229 5225 5221 5218 5215 5211
5543 5536 5528 5520 5511 5502 5491 5479 5465 5450 5433 5417 5401 5383 5369 5355 5342 5333 5324 5318 5311 5306 5301 5295 5291 5285 5279 5274 5269 5264 5259 5254 5248 5243 5238 5233 5229 5226 5223 5220 5218 5215 5213
5532 5525 5517 5508 5498 5487 5475 5461 5446 5432 5416 5401 5385 5372 5361 5348 5337 5327 5320 5314 5308 5304 5299 5294 5289 5283 5277 5272 5267 5261 5256 5251 5246 5241 5236 5232 5228 5224 5221 5219 5217 5215 5213
5520 5513 5504 5495 5484 5472 5458 5444 5429 5415 5400 5384 5370 5359 5349 5339 5330 5323 5317 5312 5307 5302 5297 5292 5286 5281 5275 5269 5264 5258 5253 5247 5244 5240 5235 5231 5227 5223 5221 5218 5216 5214 5212
5509 5501 5491 5480 5468 5455 5441 5427 5413 5399 5383 5370 5359 5348 5339 5331 5325 5320 5315 5311 5306 5301 5296 5291 5285 5280 5274 5269 5263 5258 5252 5247 5243 5239 5235 5231 5227 5224 5221 5219 5216 5214 5212
5497 5488 5477 5465 5453 5440 5425 5410 5397 5382 5369 5358 5348 5340 5332 5326 5322 5317 5314 5309 5305 5300 5295 5290 5285 5280 5275 5270 5265 5260 5255 5250 5245 5240 5237 5233 5230 5227 5223 5220 5217 5214 5211
5484 5474 5463 5450 5437 5423 5409 5396 5381 5367 5357 5347 5338 5331 5326 5323 5320 5316 5313 5310 5305 5301 5296 5291 5286 5281 5277 5273 5268 5264 5259 5254 5248 5244 5241 5238 5234 5230 5226 5222 5218 5214 5212
5471 5459 5446 5434 5421 5408 5394 5380 5366 5355 5345 5336 5330 5325 5322 5321 5319 5317 5314 5311 5307 5302 5298 5293 5288 5284 5280 5277 5273 5269 5264 5259 5254 5250 5246 5241 5237 5233 5229 5225 5221 5217 5213
5455 5443 5431 5419 5405 5392 5379 5365 5355 5344 5336 5328 5324 5321 5320 5319 5319 5318 5316 5313 5309 5305 5300 5295 5290 5287 5283 5280 5276 5273 5270 5265 5260 5256 5251 5247 5243 5239 5234 5230 5225 5220 5216